Regional Weather Roundup
Issued by NWS

Home | Current Version | Previous Version | Text Only | Print | Product List | Glossary On
Versions: 1 2 3 4 5 6 7 8 9 10 11 12 13 14 15 16 17 18 19 20 21 22 23 24 25 26 27 28 29 30 31 32 33 34 35 36 37 38 39 40 41 42 43 44 45 46 47 48 49 50
000
ASUS44 KFWD 250810
RWRTX
NORTH TEXAS HOURLY WEATHER ROUNDUP
NATIONAL WEATHER SERVICE FORT WORTH TX
300 AM CDT TUE APR 25 2017

NOTE: "FAIR" INDICATES FEW OR NO CLOUDS BELOW 12,000 FEET WITH NO
SIGNIFICANT WEATHER AND/OR OBSTRUCTIONS TO VISIBILITY.

TXZ118-119-250900-
DALLAS/FORT WORTH METROPLEX

CITY           SKY/WX    TMP DP  RH WIND       PRES   REMARKS
DFW AIRPORT    PTCLDY    67  54  63 S16G28    29.56F
DALLAS LOVE    PTCLDY    65  52  62 S14       29.58F
FTW MEACHAM    CLEAR     68  54  60 S20G30    29.56F
DAL-EXECUTIVE  CLEAR     64  54  69 S13G21    29.58F
FTW-ALLIANCE   PTCLDY    64  53  67 S7        29.56F
FTW-NAS-JRB    CLEAR     66  53  63 S16G22    29.57F
FTW-SPINKS     CLEAR     64  53  67 S15G23    29.58F
ARLINGTON      CLEAR     63  53  70 SE15      29.58F
GRAND PRAIRIE  CLEAR     64  52  65 S12       29.59F
ADDISON        CLEAR     65  52  64 S16G22    29.59F
MESQUITE       CLOUDY    61  51  70 S12G18    29.61F
LANCASTER      CLOUDY    61  53  73 S9        29.62F
$$

TXZ091>094-102>105-117-120-121-131>134-250900-
NORTH CENTRAL TEXAS

CITY           SKY/WX    TMP DP  RH WIND       PRES   REMARKS
SHRMAN/DENISON PTCLDY    62  51  66 S9        29.57F
GAINESVILLE    CLEAR     63  51  65 S13       29.56F
BOWIE          PTCLDY    64  53  68 S12G17    29.52F
BRIDGEPORT     MOCLDY    65  51  59 S12       29.55F
DECATUR        CLOUDY    65  51  60 S13       29.55F
DENTON         CLEAR     64  53  67 S14       29.56F
MCKINNEY       CLEAR     64  53  67 S16       29.58F
BONHAM         CLEAR     63  50  63 S16G23    29.58F
GREENVILLE     CLOUDY    64  52  63 S15       29.61F
ROCKWALL       CLEAR     64  53  65 S17G28    29.60F
TERRELL        CLOUDY    63  51  65 S14       29.63F
WAXAHACHIE     CLEAR     62  55  77 S14G20    29.61F
CLEBURNE       CLEAR     63  57  82 S16G28    29.59F
GRANBURY       PTCLDY    64  53  67 CALM      29.58S
$$

TXZ083>090-098>101-113>116-127>130-139>142-154-155-250900-
WESTERN NORTH TEXAS

CITY           SKY/WX    TMP DP  RH WIND       PRES   REMARKS
WICHITA FALLS  NOT AVBL
WF-KICKAPOO    PTCLDY    66  53  62 SE8       29.50F
VERNON         CLOUDY    69  48  47 S15       29.45F
ABILENE        CLEAR     67  52  58 S21G33    29.55F
GRAHAM         CLEAR     67  54  63 S7        29.52F
BRECKENRIDGE   PTCLDY    69  52  54 S12       29.54S
CISCO          PTCLDY    66  52  59 S13G22    29.56F
RANGER         PTCLDY    65  53  64 S12G22    29.56F
MINERAL WELLS  MOCLDY    62  51  67 SE10      29.54F
STEPHENVILLE   CLOUDY    62  51  67 S9        29.60F
COMANCHE       CLOUDY    64  53  66 S8        29.58F
BROWNWOOD      PTCLDY    59  52  77 S5        29.60S
COLEMAN        CLOUDY    61  51  70 SW3       29.60F
$$

TXZ143>147-156>162-174-175-250900-
CENTRAL TEXAS

CITY           SKY/WX    TMP DP  RH WIND       PRES   REMARKS
WACO           CLEAR     63  55  75 S17G24    29.62F
WACO-MCGREGOR  CLEAR     64  54  69 S17G26    29.61F
HILLSBORO      CLEAR     63  55  76 S14       29.62F
CORSICANA      CLEAR     64  54  69 S12       29.65F
MEXIA          CLEAR     62  52  69 S14G20    29.64F
HEARNE         CLEAR     61  56  84 SE7       29.68F
CAMERON        CLEAR     63  55  75 S10       29.66F
TEMPLE         CLEAR     62  56  80 S20G29    29.64F
KILLEEN        CLEAR     63  55  74 S21       29.60F
KILLEEN-SKYLRK CLEAR     64  55  72 S14       29.63F
FORT HOOD      CLEAR     63  54  73 S12G20    29.59F
GATESVILLE     CLEAR     64  55  72 S9G18     29.63F
HAMILTON       CLEAR     63  54  72 S13       29.60F
LAMPASAS       CLEAR     63  57  80 S8        29.61F
$$

TXZ095>097-106>112-122>126-135>138-148>153-164>167-250900-
EAST TEXAS

CITY           SKY/WX    TMP DP  RH WIND       PRES   REMARKS
PARIS          CLEAR     59  48  67 SE10      29.63F
SULPHUR SPRNGS CLEAR     64  51  64 S13       29.65F
MOUNT PLEASANT CLEAR     56  51  84 SE8       29.68F
GILMER         PTCLDY    59  53  79 S7        29.68F
MINEOLA        PTCLDY    63  54  72 S9        29.66F
TYLER          CLEAR     62  55  77 S13       29.67F
LONGVIEW       CLEAR     60  55  83 S8        29.69F
MARSHALL       CLEAR     55  50  83 S5        29.72F
ATHENS         CLEAR     59  52  77 S8        29.66F
PALESTINE      CLEAR     62  56  81 S9        29.69F
JACKSONVILLE   CLEAR     59  56  89 S8        29.71F
HENDERSON      CLEAR     60  54  81 S7        29.71F
CENTER         MOSUNNY   60  57  92 SE6       29.73F
NACOGDOCHES    PTCLDY    61  54  77 S8        29.71F
LUFKIN         PTCLDY    58  54  86 SE5       29.72F
$$

SUPPLEMENTAL OBSERVATIONS (CENTRAL)

CITY           SKY/WX    TMP DP  RH WIND       PRES   REMARKS
CADDO GRASSLND   N/A     63  50  63 S7          N/A
PAT MAYSE LAKE   N/A     61  50  67 E8          N/A
GREENVILLE       N/A     63  50  63 S10         N/A
CEDAR HILL       N/A     64  54  68 S13G24      N/A
MCGREGOR         N/A     63  54  72 S20G28      N/A
TEMPLE           N/A     63  55  77 S14         N/A
$$

SUPPLEMENTAL OBSERVATIONS (WEST)

CITY           SKY/WX    TMP DP  RH WIND       PRES   REMARKS
MILLERS CREEK    N/A     70  52  52 SW14G22     N/A
POSSUM KINGDOM   N/A     68  52  56 S7          N/A
LBJ GRASSLAND    N/A     64  52  63 SE10        N/A
GRANBURY         N/A     64  54  68 SE5         N/A
HAMBY            N/A     68  50  52 S15         N/A
IVIE RESERVOIR   N/A     70  52  52 W6          N/A
COLORADO BEND    N/A     64  55  72 SW10G18     N/A
$$

SUPPLEMENTAL OBSERVATIONS (EAST)

CITY           SKY/WX    TMP DP  RH WIND       PRES   REMARKS
CLARKSVILLE      N/A     59  50  72 SE8         N/A
TEXARKANA        N/A     50  48  93 CALM        N/A
LINDEN           N/A     57  48  72 S2          N/A
GILMER           N/A     61  54  77 S5          N/A
HENDERSON        N/A     61  54  77 S8          N/A
LUFKIN           N/A     59  55  88 MISG        N/A
N SABINE NF      N/A     55  50  82 MISG        N/A
S SABINE NF      N/A     55  52  88 SW1         N/A
$$

SUPPLEMENTAL OBSERVATIONS ARE A COLLECTION OF AUTOMATED INSTRUMENTS
THAT ARE MAINTAINED BY A VARIETY OF FEDERAL AND STATE AGENCIES.
CERTAIN ELEMENTS...SUCH AS HUMIDITY VALUES AND SUSTAINED WIND
SPEEDS...MAY BE APPROXIMATED.





USA.gov is the U.S. government's official web portal to all federal, state and local government web resources and services.